Index of /pool/main/b

[ICO]NameLast modifiedSizeDescription

[PARENTDIR]Parent Directory  -  
[DIR]bucklespring/2017-02-09 00:05 -  
[DIR]binutils-h8300-hms/2017-04-19 14:57 -  
[DIR]black-box/2017-04-19 14:57 -  
[DIR]buffer/2017-04-19 14:57 -  
[DIR]blahtexml/2018-01-09 16:35 -  
[DIR]bulletml/2018-01-09 16:35 -  
[DIR]beansbinding/2018-04-06 20:01 -  
[DIR]bgoffice-computer-terms/2018-07-31 08:16 -  
[DIR]bibcursed/2018-07-31 08:16 -  
[DIR]bidiv/2018-07-31 08:16 -  
[DIR]blocks-of-the-undead/2018-07-31 08:16 -  
[DIR]bomberclone/2018-08-18 08:40 -  
[DIR]bterm-unifont/2018-10-16 15:40 -  
[DIR]bgoffice/2019-01-29 21:36 -  
[DIR]biff/2019-01-29 21:36 -  
[DIR]bindex/2019-01-29 21:36 -  
[DIR]bpm-tools/2019-01-29 21:36 -  
[DIR]bro-aux/2019-01-29 21:36 -  
[DIR]brutalchess/2019-01-29 21:36 -  
[DIR]blktool/2019-01-30 00:08 -  
[DIR]blktrace/2019-05-03 19:45 -  
[DIR]butteraugli/2019-05-03 19:45 -  
[DIR]bbtime/2019-08-21 09:28 -  
[DIR]bed/2019-08-21 09:28 -  
[DIR]bindechexascii/2019-08-21 09:28 -  
[DIR]blackbox-themes/2019-08-21 09:28 -  
[DIR]blepvco/2019-08-21 09:28 -  
[DIR]bls-standalone/2019-08-21 09:28 -  
[DIR]blueranger/2019-08-21 09:28 -  
[DIR]bodr/2019-08-21 09:28 -  
[DIR]bs2b-ladspa/2019-08-21 09:28 -  
[DIR]bsd-finger/2019-08-21 09:28 -  
[DIR]buddy/2019-08-21 09:28 -  
[DIR]bugsquish/2019-08-21 09:28 -  
[DIR]bbdb/2019-11-21 21:13 -  
[DIR]blazeblogger/2019-11-21 21:13 -  
[DIR]bsh/2019-11-21 21:13 -  
[DIR]byte-buddy/2019-11-21 21:13 -  
[DIR]bzr-builddeb/2019-11-21 21:13 -  
[DIR]bzr-email/2019-11-21 21:13 -  
[DIR]bzr-fastimport/2019-11-21 21:13 -  
[DIR]bzr-stats/2019-11-21 21:13 -  
[DIR]bzr-upload/2019-11-21 21:13 -  
[DIR]bzrtools/2019-11-21 21:13 -  
[DIR]brickos/2019-12-22 06:02 -  
[DIR]boogie/2020-01-08 18:00 -  
[DIR]basket/2020-01-18 13:06 -  
[DIR]boohu/2020-01-18 13:06 -  
[DIR]brutefir/2020-01-18 13:06 -  
[DIR]bzr-git/2020-01-18 13:06 -  
[DIR]bio-tradis/2020-01-21 00:06 -  
[DIR]bigint/2020-02-06 06:02 -  
[DIR]bidentd/2020-03-28 06:05 -  
[DIR]bandit/2020-05-05 08:40 -  
[DIR]barrnap/2020-05-05 08:40 -  
[DIR]birthday/2020-05-05 08:40 -  
[DIR]bmagic/2020-05-05 08:40 -  
[DIR]bmusb/2020-05-05 08:40 -  
[DIR]bosh/2020-05-05 08:40 -  
[DIR]brig/2020-05-05 08:40 -  
[DIR]btanks/2020-05-05 08:40 -  
[DIR]byobu/2020-05-05 08:40 -  
[DIR]batalert/2020-07-01 06:04 -  
[DIR]bcache-tools/2020-07-21 14:48 -  
[DIR]berusky2/2020-07-21 14:48 -  
[DIR]berusky2-data/2020-07-21 14:48 -  
[DIR]bibtool/2020-07-21 14:48 -  
[DIR]binclock/2020-07-21 14:48 -  
[DIR]bittwist/2020-07-21 14:48 -  
[DIR]bootpc/2020-07-21 14:48 -  
[DIR]btyacc/2020-07-21 14:48 -  
[DIR]bettercap-ui/2020-11-11 12:42 -  
[DIR]bio-rainbow/2020-11-11 12:42 -  
[DIR]biosquid/2020-11-11 12:42 -  
[DIR]boot-info-script/2020-11-11 12:42 -  
[DIR]brightd/2020-11-11 12:42 -  
[DIR]btrfs-heatmap/2020-11-11 12:42 -  
[DIR]bigdoc/2020-12-08 06:02 -  
[DIR]bcg729/2020-12-13 06:10 -  
[DIR]backport9/2021-01-24 06:02 -  
[DIR]build-essential-mipsen/2021-02-08 06:01 -  
[DIR]bristol/2021-02-11 06:04 -  
[DIR]backdoor-factory/2021-02-16 12:19 -  
[DIR]backup-manager/2021-02-16 12:19 -  
[DIR]backupninja/2021-02-16 12:19 -  
[DIR]backuppc-rsync/2021-02-16 12:19 -  
[DIR]bar-cursor-el/2021-02-16 12:19 -  
[DIR]barrage/2021-02-16 12:19 -  
[DIR]bd/2021-02-16 12:19 -  
[DIR]beckon-clojure/2021-02-16 12:19 -  
[DIR]beneath-a-steel-sky/2021-02-16 12:19 -  
[DIR]berusky-data/2021-02-16 12:19 -  
[DIR]biblesync/2021-02-16 12:19 -  
[DIR]bidi-clojure/2021-02-16 12:19 -  
[DIR]biogenesis/2021-02-16 12:19 -  
[DIR]blackbird-gtk-theme/2021-02-16 12:19 -  
[DIR]bliss/2021-02-16 12:19 -  
[DIR]blkreplay/2021-02-16 12:19 -  
[DIR]blockdiag/2021-02-16 12:19 -  
[DIR]blosxom/2021-02-16 12:19 -  
[DIR]bluemon/2021-02-16 12:19 -  
[DIR]bmt/2021-02-16 12:19 -  
[DIR]bnd/2021-02-16 12:19 -  
[DIR]boilerpipe/2021-02-16 12:19 -  
[DIR]boxquote-el/2021-02-16 12:19 -  
[DIR]boxshade/2021-02-16 12:19 -  
[DIR]brainparty/2021-02-16 12:19 -  
[DIR]brightnessctl/2021-02-16 12:19 -  
[DIR]browse-kill-ring-el/2021-02-16 12:19 -  
[DIR]build-essential/2021-02-16 12:19 -  
[DIR]bulk-media-downloader/2021-02-16 12:19 -  
[DIR]bwbasic/2021-02-16 12:19 -  
[DIR]bytecode/2021-02-16 12:19 -  
[DIR]berrynet/2021-05-25 16:04 -  
[DIR]bouncy/2021-05-25 16:04 -  
[DIR]braa/2021-05-25 16:04 -  
[DIR]btrfs-compsize/2021-05-25 16:04 -  
[DIR]bsdowl/2021-08-16 14:33 -  
[DIR]bioawk/2021-08-16 14:49 -  
[DIR]bombadillo/2021-08-16 14:49 -  
[DIR]bazel-platforms/2021-08-21 06:02 -  
[DIR]bazel-skylib/2021-08-21 06:02 -  
[DIR]bamkit/2021-08-31 15:19 -  
[DIR]betaradio/2021-08-31 15:19 -  
[DIR]bettercap-caplets/2021-08-31 15:19 -  
[DIR]bioperl/2021-08-31 15:19 -  
[DIR]bitmeter/2021-08-31 15:19 -  
[DIR]bitstream/2021-08-31 15:19 -  
[DIR]bluesnarfer/2021-08-31 15:19 -  
[DIR]braillegraph/2021-08-31 15:19 -  
[DIR]bucardo/2021-08-31 15:19 -  
[DIR]bytes-circle/2021-08-31 15:19 -  
[DIR]bgpdump/2021-09-03 00:09 -  
[DIR]buku/2021-09-03 00:09 -  
[DIR]burgerspace/2021-09-03 00:09 -  
[DIR]bordeaux-threads/2021-09-06 00:08 -  
[DIR]bumpversion/2021-11-09 06:02 -  
[DIR]b374k/2021-11-25 13:05 -  
[DIR]babelfish/2021-11-25 13:05 -  
[DIR]backblaze-b2/2021-11-25 13:05 -  
[DIR]backward-cpp/2021-11-25 13:05 -  
[DIR]bedtools/2021-11-25 13:05 -  
[DIR]bf-utf/2021-11-25 13:05 -  
[DIR]bidict/2021-11-25 13:05 -  
[DIR]bio-vcf/2021-11-25 13:05 -  
[DIR]bitseq/2021-11-25 13:05 -  
[DIR]blessings/2021-11-25 13:05 -  
[DIR]blhc/2021-11-25 13:05 -  
[DIR]blockui/2021-11-25 13:05 -  
[DIR]bmap-tools/2021-11-25 13:05 -  
[DIR]brailleutils/2021-11-25 13:05 -  
[DIR]browser-request/2021-11-25 13:05 -  
[DIR]buildstream/2021-11-25 13:05 -  
[DIR]behave/2021-12-19 06:02 -  
[DIR]bootsidemenu.js/2021-12-31 06:01 -  
[DIR]binutils-sh-elf/2022-01-04 18:07 -  
[DIR]backup2l/2022-02-07 17:12 -  
[DIR]baitfisher/2022-02-07 17:12 -  
[DIR]bepasty/2022-02-07 17:12 -  
[DIR]big-cursor/2022-02-07 17:12 -  
[DIR]binpac/2022-02-07 17:12 -  
[DIR]binstats/2022-02-07 17:12 -  
[DIR]biomaj3-zipkin/2022-02-07 17:12 -  
[DIR]bpytop/2022-02-07 17:12 -  
[DIR]btest/2022-02-07 17:12 -  
[DIR]bytecode-viewer/2022-02-07 17:12 -  
[DIR]bcnc/2022-02-10 06:02 -  
[DIR]bidiui/2022-02-19 06:03 -  
[DIR]baconqrcode/2022-02-19 06:07 -  
[DIR]bqplot/2022-02-21 06:02 -  
[DIR]bme280/2022-03-27 06:18 -  
[DIR]biabam/2022-04-07 06:01 -  
[DIR]brag/2022-04-13 06:00 -  
[DIR]binfmtc/2022-04-13 06:01 -  
[DIR]bitlbee-mastodon/2022-04-14 06:02 -  
[DIR]bui-el/2022-04-20 06:17 -  
[DIR]bplay/2022-04-27 06:02 -  
[DIR]backintime/2022-05-04 07:16 -  
[DIR]bash-completion/2022-05-04 07:16 -  
[DIR]beginend-el/2022-05-04 07:16 -  
[DIR]bernhard/2022-05-04 07:16 -  
[DIR]betamax/2022-05-04 07:16 -  
[DIR]bfbtester/2022-05-04 07:16 -  
[DIR]bibutils/2022-05-04 07:16 -  
[DIR]binaryornot/2022-05-04 07:16 -  
[DIR]binwalk/2022-05-04 07:16 -  
[DIR]biojava-live/2022-05-04 07:16 -  
[DIR]bioperl-run/2022-05-04 07:16 -  
[DIR]blag-fortune/2022-05-04 07:16 -  
[DIR]bleachbit/2022-05-04 07:16 -  
[DIR]bless/2022-05-04 07:16 -  
[DIR]boxer/2022-05-04 07:16 -  
[DIR]boxfort/2022-05-04 07:16 -  
[DIR]brandy/2022-05-04 07:16 -  
[DIR]brlaser/2022-05-04 07:16 -  
[DIR]budgie-indicator-applet/2022-05-04 07:16 -  
[DIR]buici-clock/2022-05-04 07:16 -  
[DIR]buildlog-consultant/2022-05-04 07:16 -  
[DIR]bundlewrap/2022-05-04 07:16 -  
[DIR]byacc-j/2022-05-04 07:16 -  
[DIR]bali-phy/2022-07-20 07:36 -  
[DIR]ballz/2022-07-20 07:36 -  
[DIR]balsa/2022-07-20 07:36 -  
[DIR]bamf/2022-07-20 07:36 -  
[DIR]bar/2022-07-20 07:36 -  
[DIR]basez/2022-07-20 07:36 -  
[DIR]basic256/2022-07-20 07:36 -  
[DIR]baycomusb/2022-07-20 07:36 -  
[DIR]bbpager/2022-07-20 07:36 -  
[DIR]bc/2022-07-20 07:36 -  
[DIR]bcachefs-tools/2022-07-20 07:36 -  
[DIR]bcal/2022-07-20 07:36 -  
[DIR]bdbvu/2022-07-20 07:36 -  
[DIR]bdfresize/2022-07-20 07:36 -  
[DIR]beef/2022-07-20 07:36 -  
[DIR]beep/2022-07-20 07:36 -  
[DIR]bfm/2022-07-20 07:36 -  
[DIR]bglibs/2022-07-20 07:36 -  
[DIR]bgpq3/2022-07-20 07:36 -  
[DIR]bibtex2html/2022-07-20 07:36 -  
[DIR]bifcl/2022-07-20 07:36 -  
[DIR]bilibop/2022-07-20 07:36 -  
[DIR]biloba/2022-07-20 07:36 -  
[DIR]bindfs/2022-07-20 07:36 -  
[DIR]biniou/2022-07-20 07:36 -  
[DIR]binutils-avr/2022-07-20 07:36 -  
[DIR]binutils-xtensa-lx106/2022-07-20 07:36 -  
[DIR]binutils-z80/2022-07-20 07:36 -  
[DIR]bio-eagle/2022-07-20 07:36 -  
[DIR]bitlbee/2022-07-20 07:36 -  
[DIR]blinken/2022-07-20 07:36 -  
[DIR]blockout2/2022-07-20 07:36 -  
[DIR]blt/2022-07-20 07:36 -  
[DIR]bluefish/2022-07-20 07:36 -  
[DIR]bluez-tools/2022-07-20 07:36 -  
[DIR]boats/2022-07-20 07:36 -  
[DIR]bombardier/2022-07-20 07:36 -  
[DIR]bomber/2022-07-20 07:36 -  
[DIR]bookworm/2022-07-20 07:36 -  
[DIR]boomaga/2022-07-20 07:36 -  
[DIR]boost-defaults/2022-07-20 07:36 -  
[DIR]bootp/2022-07-20 07:36 -  
[DIR]bornagain/2022-07-20 07:36 -  
[DIR]boswars/2022-07-20 07:36 -  
[DIR]bottlerocket/2022-07-20 07:36 -  
[DIR]bovo/2022-07-20 07:36 -  
[DIR]bowtie2/2022-07-20 07:36 -  
[DIR]bridge-utils/2022-07-20 07:36 -  
[DIR]broker/2022-07-20 07:37 -  
[DIR]brp-pacu/2022-07-20 07:37 -  
[DIR]bsd-mailx/2022-07-20 07:37 -  
[DIR]bsdiff/2022-07-20 07:37 -  
[DIR]bsdmainutils/2022-07-20 07:37 -  
[DIR]bspwm/2022-07-20 07:37 -  
[DIR]btscanner/2022-07-20 07:37 -  
[DIR]budgie-desktop-view/2022-07-20 07:37 -  
[DIR]buildtorrent/2022-07-20 07:37 -  
[DIR]bullet/2022-07-20 07:37 -  
[DIR]bully/2022-07-20 07:37 -  
[DIR]bumprace/2022-07-20 07:37 -  
[DIR]bup/2022-07-20 07:37 -  
[DIR]bwa/2022-07-20 07:37 -  
[DIR]bzr/2022-07-20 07:37 -  
[DIR]b4/2022-08-02 18:57 -  
[DIR]backbone/2022-08-02 18:57 -  
[DIR]ballerburg/2022-08-02 18:57 -  
[DIR]barada-pam/2022-08-02 18:57 -  
[DIR]barcode/2022-08-02 18:57 -  
[DIR]baresip/2022-08-02 18:57 -  
[DIR]basex/2022-08-02 18:57 -  
[DIR]bbdb3/2022-08-02 18:57 -  
[DIR]bbrun/2022-08-02 18:57 -  
[DIR]bbswitch/2022-08-02 18:57 -  
[DIR]bchunk/2022-08-02 18:57 -  
[DIR]bcron/2022-08-02 18:57 -  
[DIR]bdist-nsi/2022-08-02 18:57 -  
[DIR]bearssl/2022-08-02 18:57 -  
[DIR]bedops/2022-08-02 18:57 -  
[DIR]bfs/2022-08-02 18:57 -  
[DIR]biber/2022-08-02 18:57 -  
[DIR]bibletime/2022-08-02 18:57 -  
[DIR]bibtexconv/2022-08-02 18:57 -  
[DIR]bibtexparser/2022-08-02 18:57 -  
[DIR]binaryen/2022-08-02 18:57 -  
[DIR]biniax2/2022-08-02 18:57 -  
[DIR]biojava5-live/2022-08-02 18:57 -  
[DIR]biomaj3-cli/2022-08-02 18:57 -  
[DIR]biomaj3-daemon/2022-08-02 18:57 -  
[DIR]biomaj3-user/2022-08-02 18:57 -  
[DIR]biosyntax/2022-08-02 18:58 -  
[DIR]bitshuffle/2022-08-02 18:58 -  
[DIR]bitstormlite/2022-08-02 18:58 -  
[DIR]blends/2022-08-02 18:58 -  
[DIR]blis/2022-08-02 18:58 -  
[DIR]blobby/2022-08-02 18:58 -  
[DIR]bluebird-gtk-theme/2022-08-02 18:58 -  
[DIR]boinctui/2022-08-02 18:58 -  
[DIR]bouncycastle/2022-08-02 18:58 -  
[DIR]breathe/2022-08-02 18:58 -  
[DIR]breezy/2022-08-02 18:58 -  
[DIR]brian/2022-08-02 18:58 -  
[DIR]brise/2022-08-02 18:58 -  
[DIR]bruteforce-salted-openssl/2022-08-02 18:58 -  
[DIR]bruteforce-wallet/2022-08-02 18:58 -  
[DIR]bs1770gain/2022-08-02 18:58 -  
[DIR]bsaf/2022-08-02 18:58 -  
[DIR]btfs/2022-08-02 18:58 -  
[DIR]bugz/2022-08-02 18:58 -  
[DIR]bvi/2022-08-02 18:58 -  
[DIR]betterlockscreen/2022-08-05 00:04 -  
[DIR]beagle/2022-08-08 00:09 -  
[DIR]brebis/2022-09-07 06:01 -  
[DIR]bcmatroska2/2022-09-17 06:03 -  
[DIR]bustle/2022-10-01 12:01 -  
[DIR]bumblebee-status/2022-10-02 06:06 -  
[DIR]busco/2022-10-02 06:06 -  
[DIR]bats-support/2022-10-06 06:01 -  
[DIR]bookletimposer/2022-10-17 03:20 -  
[DIR]boxbackup/2022-10-18 00:10 -  
[DIR]bergman/2022-10-24 06:07 -  
[DIR]beanbag-docutils/2022-11-01 00:05 -  
[DIR]btllib/2022-11-04 00:07 -  
[DIR]bemenu/2022-11-07 00:09 -  
[DIR]bismuth/2022-11-08 00:06 -  
[DIR]biometryd/2022-11-08 06:18 -  
[DIR]brotli/2022-11-12 18:07 -  
[DIR]babeltrace2/2022-11-12 18:07 -  
[DIR]bst-external/2022-11-13 06:09 -  
[DIR]bottleneck/2022-11-13 12:01 -  
[DIR]biosig/2022-11-14 06:09 -  
[DIR]bleak/2022-11-15 00:10 -  
[DIR]bloodhound.py/2022-11-17 09:03 -  
[DIR]botch/2022-11-21 02:21 -  
[DIR]babel-minify/2022-11-23 01:52 -  
[DIR]babeld/2022-11-23 01:52 -  
[DIR]babeltrace/2022-11-23 01:52 -  
[DIR]backoff/2022-11-23 01:52 -  
[DIR]backuppc/2022-11-23 01:52 -  
[DIR]bacula/2022-11-23 01:52 -  
[DIR]badger/2022-11-23 01:52 -  
[DIR]balboa/2022-11-23 01:52 -  
[DIR]ball/2022-11-23 01:52 -  
[DIR]balloon/2022-11-23 01:52 -  
[DIR]baloo-widgets/2022-11-23 01:52 -  
[DIR]bam/2022-11-23 01:52 -  
[DIR]bambam/2022-11-23 01:52 -  
[DIR]bambamc/2022-11-23 01:52 -  
[DIR]bambootracker/2022-11-23 01:52 -  
[DIR]bamclipper/2022-11-23 01:52 -  
[DIR]bamtools/2022-11-23 01:52 -  
[DIR]bandage/2022-11-23 01:52 -  
[DIR]bandwidthd/2022-11-23 01:52 -  
[DIR]baobab/2022-11-23 01:52 -  
[DIR]barbican/2022-11-23 01:52 -  
[DIR]barbican-tempest-plugin/2022-11-23 01:52 -  
[DIR]barclay/2022-11-23 01:52 -  
[DIR]barectf/2022-11-23 01:52 -  
[DIR]barman/2022-11-23 01:52 -  
[DIR]barnowl/2022-11-23 01:52 -  
[DIR]barrier/2022-11-23 01:52 -  
[DIR]bart/2022-11-23 01:52 -  
[DIR]bart-view/2022-11-23 01:52 -  
[DIR]base-files/2022-11-23 01:52 -  
[DIR]base-installer/2022-11-23 01:52 -  
[DIR]base-passwd/2022-11-23 01:52 -  
[DIR]bash/2022-11-23 01:52 -  
[DIR]bastet/2022-11-23 01:52 -  
[DIR]batctl/2022-11-23 01:52 -  
[DIR]batik/2022-11-23 01:52 -  
[DIR]batmon.app/2022-11-23 01:52 -  
[DIR]bats/2022-11-23 01:52 -  
[DIR]battery-stats/2022-11-23 01:52 -  
[DIR]baycomepp/2022-11-23 01:52 -  
[DIR]bazel-rules-java/2022-11-23 01:52 -  
[DIR]bbe/2022-11-23 01:52 -  
[DIR]bbhash/2022-11-23 01:52 -  
[DIR]bbmail/2022-11-23 01:52 -  
[DIR]bbmap/2022-11-23 01:52 -  
[DIR]bcalm/2022-11-23 01:52 -  
[DIR]bcel/2022-11-23 01:52 -  
[DIR]bcftools/2022-11-23 01:52 -  
[DIR]bcm2835/2022-11-23 01:52 -  
[DIR]bcolz/2022-11-23 01:52 -  
[DIR]bcpp/2022-11-23 01:52 -  
[DIR]bctoolbox/2022-11-23 01:52 -  
[DIR]bdebstrap/2022-11-23 01:52 -  
[DIR]bdf2sfd/2022-11-23 01:52 -  
[DIR]bdii/2022-11-23 01:52 -  
[DIR]beacon/2022-11-23 01:52 -  
[DIR]beads/2022-11-23 01:52 -  
[DIR]beanstalkd/2022-11-23 01:52 -  
[DIR]beef-xss/2022-11-23 01:52 -  
[DIR]beets/2022-11-23 01:52 -  
[DIR]belcard/2022-11-23 01:52 -  
[DIR]belenios/2022-11-23 01:52 -  
[DIR]belle-sip/2022-11-23 01:52 -  
[DIR]belr/2022-11-23 01:52 -  
[DIR]benchmark/2022-11-23 01:52 -  
[DIR]berate-ap/2022-11-23 01:52 -  
[DIR]berusky/2022-11-23 01:52 -  
[DIR]bettercap/2022-11-23 01:52 -  
[DIR]between/2022-11-23 01:52 -  
[DIR]bgpq4/2022-11-23 01:52 -  
[DIR]bgw-replstatus/2022-11-23 01:52 -  
[DIR]bibclean/2022-11-23 01:52 -  
[DIR]bible-kjv/2022-11-23 01:52 -  
[DIR]bibledit/2022-11-23 01:52 -  
[DIR]bibledit-cloud/2022-11-23 01:52 -  
[DIR]biboumi/2022-11-23 01:52 -  
[DIR]bijiben/2022-11-23 01:52 -  
[DIR]billard-gl/2022-11-23 01:52 -  
[DIR]billiard/2022-11-23 01:52 -  
[DIR]bind-dyndb-ldap/2022-11-23 01:52 -  
[DIR]bind9/2022-11-23 01:52 -  
[DIR]bing/2022-11-23 01:52 -  
[DIR]bing-ip2hosts/2022-11-23 01:52 -  
[DIR]binkd/2022-11-23 01:52 -  
[DIR]binutils/2022-11-23 01:52 -  
[DIR]binutils-arm-none-eabi/2022-11-23 01:52 -  
[DIR]binutils-bpf/2022-11-23 01:52 -  
[DIR]binutils-m68hc1x/2022-11-23 01:52 -  
[DIR]binutils-mingw-w64/2022-11-23 01:52 -  
[DIR]binutils-mipsen/2022-11-23 01:52 -  
[DIR]binutils-or1k-elf/2022-11-23 01:52 -  
[DIR]binutils-riscv64-unknown-elf/2022-11-23 01:52 -  
[DIR]biobambam2/2022-11-23 01:52 -  
[DIR]biococoa/2022-11-23 01:52 -  
[DIR]biojava4-live/2022-11-23 01:52 -  
[DIR]biomaj3-core/2022-11-23 01:52 -  
[DIR]biomaj3/2022-11-23 01:52 -  
[DIR]biomaj3-download/2022-11-23 01:52 -  
[DIR]biomaj3-process/2022-11-23 01:52 -  
[DIR]biometric-authentication/2022-11-23 01:52 -  
[DIR]bioxtasraw/2022-11-23 01:52 -  
[DIR]bip/2022-11-23 01:52 -  
[DIR]bird/2022-11-23 01:52 -  
[DIR]bird2/2022-11-23 01:52 -  
[DIR]birdfont/2022-11-23 01:52 -  
[DIR]birdtray/2022-11-23 01:52 -  
[DIR]bison/2022-11-23 01:52 -  
[DIR]bison++/2022-11-23 01:52 -  
[DIR]bisonc++/2022-11-23 01:52 -  
[DIR]bitstruct/2022-11-23 01:52 -  
[DIR]bitwise/2022-11-23 01:52 -  
[DIR]bkchem/2022-11-23 01:52 -  
[DIR]black/2022-11-23 01:52 -  
[DIR]blackbox/2022-11-23 01:52 -  
[DIR]bladerf/2022-11-23 01:52 -  
[DIR]blaeu/2022-11-23 01:52 -  
[DIR]blag/2022-11-23 01:52 -  
[DIR]blasr/2022-11-23 01:52 -  
[DIR]blastem/2022-11-23 01:52 -  
[DIR]blobandconquer/2022-11-23 01:52 -  
[DIR]bloboats/2022-11-23 01:52 -  
[DIR]blobwars/2022-11-23 01:52 -  
[DIR]blockattack/2022-11-23 01:52 -  
[DIR]bloodhound/2022-11-23 01:52 -  
[DIR]blop/2022-11-23 01:52 -  
[DIR]bluedevil/2022-11-23 01:52 -  
[DIR]bluelog/2022-11-23 01:52 -  
[DIR]blueman/2022-11-23 01:52 -  
[DIR]blueprint-compiler/2022-11-23 01:52 -  
[DIR]bluez-alsa/2022-11-23 01:52 -  
[DIR]blur-effect/2022-11-23 01:52 -  
[DIR]bmake/2022-11-23 01:52 -  
[DIR]bmf/2022-11-23 01:52 -  
[DIR]bmon/2022-11-23 01:52 -  
[DIR]bmtk/2022-11-23 01:52 -  
[DIR]bnfc/2022-11-23 01:52 -  
[DIR]bobcat/2022-11-23 01:52 -  
[DIR]bochs/2022-11-23 01:52 -  
[DIR]bogl/2022-11-23 01:52 -  
[DIR]bogofilter/2022-11-23 01:52 -  
[DIR]bolt/2022-11-23 01:52 -  
[DIR]bolt-lmm/2022-11-23 01:52 -  
[DIR]bomstrip/2022-11-23 01:52 -  
[DIR]bongo/2022-11-23 01:52 -  
[DIR]boolector/2022-11-23 01:52 -  
[DIR]boolstuff/2022-11-23 01:52 -  
[DIR]boost1.74/2022-11-23 01:52 -  
[DIR]bootcd/2022-11-23 01:52 -  
[DIR]booth/2022-11-23 01:52 -  
[DIR]borgbackup/2022-11-23 01:52 -  
[DIR]borgmatic/2022-11-23 01:52 -  
[DIR]bosixnet/2022-11-23 01:52 -  
[DIR]bossa/2022-11-23 01:52 -  
[DIR]bowtie/2022-11-23 01:52 -  
[DIR]box2d/2022-11-23 01:52 -  
[DIR]boxer-data/2022-11-23 01:52 -  
[DIR]boxes/2022-11-23 01:52 -  
[DIR]bpfcc/2022-11-23 01:52 -  
[DIR]bpfmon/2022-11-23 01:52 -  
[DIR]bpftrace/2022-11-23 01:52 -  
[DIR]bppphyview/2022-11-23 01:52 -  
[DIR]bppsuite/2022-11-23 01:52 -  
[DIR]bpython/2022-11-23 01:52 -  
[DIR]br.ispell/2022-11-23 01:52 -  
[DIR]braceexpand/2022-11-23 01:52 -  
[DIR]braillefont/2022-11-23 01:52 -  
[DIR]brasero/2022-11-23 01:52 -  
[DIR]breeze/2022-11-23 01:52 -  
[DIR]breeze-grub/2022-11-23 01:52 -  
[DIR]breeze-gtk/2022-11-23 01:52 -  
[DIR]breeze-plymouth/2022-11-23 01:52 -  
[DIR]breezy-debian/2022-11-23 01:52 -  
[DIR]brewtarget/2022-11-23 01:52 -  
[DIR]brial/2022-11-23 01:52 -  
[DIR]briquolo/2022-11-23 01:52 -  
[DIR]brisk-menu/2022-11-23 01:52 -  
[DIR]brltty/2022-11-23 01:52 -  
[DIR]browserpass/2022-11-23 01:52 -  
[DIR]bruteforce-luks/2022-11-23 01:52 -  
[DIR]brutespray/2022-11-23 01:52 -  
[DIR]bsdgames/2022-11-23 01:52 -  
[DIR]btcheck/2022-11-23 01:52 -  
[DIR]bti/2022-11-23 01:52 -  
[DIR]btop/2022-11-23 01:52 -  
[DIR]btrbk/2022-11-23 01:52 -  
[DIR]btrfsmaintenance/2022-11-23 01:52 -  
[DIR]bubblewrap/2022-11-23 01:52 -  
[DIR]budgie-control-center/2022-11-23 01:52 -  
[DIR]budgie-desktop/2022-11-23 01:52 -  
[DIR]budgie-extras/2022-11-23 01:52 -  
[DIR]bugwarrior/2022-11-23 01:52 -  
[DIR]build-helper-maven-plugin/2022-11-23 01:52 -  
[DIR]buildapp/2022-11-23 01:52 -  
[DIR]bumblebee/2022-11-23 01:52 -  
[DIR]burpsuite/2022-11-23 01:52 -  
[DIR]burrow/2022-11-23 01:52 -  
[DIR]bustools/2022-11-23 01:52 -  
[DIR]busybox/2022-11-23 01:52 -  
[DIR]butt/2022-11-23 01:52 -  
[DIR]buzztrax/2022-11-23 01:52 -  
[DIR]bwbar/2022-11-23 01:52 -  
[DIR]bwm-ng/2022-11-23 01:52 -  
[DIR]byacc/2022-11-23 01:52 -  
[DIR]bygfoot/2022-11-23 01:52 -  
[DIR]byteman/2022-11-23 01:52 -  
[DIR]byzanz/2022-11-23 01:52 -  
[DIR]bzflag/2022-11-23 01:52 -  
[DIR]bzip2/2022-11-23 01:52 -  
[DIR]bzrtp/2022-11-23 01:52 -  
[DIR]bzip3/2022-11-23 06:08 -  
[DIR]bignumber.js/2022-11-24 06:04 -  
[DIR]buthead/2022-11-24 06:06 -  
[DIR]babl/2022-11-24 06:07 -  
[DIR]beancount/2022-11-24 06:07 -  
[DIR]batmand/2022-11-25 00:07 -  
[DIR]beast2-mcmc/2022-11-25 00:07 -  
[DIR]ben/2022-11-25 00:07 -  
[DIR]bin-prot/2022-11-25 00:07 -  
[DIR]bitlbee-facebook/2022-11-25 00:07 -  
[DIR]blist/2022-11-25 00:07 -  
[DIR]botan/2022-11-25 00:07 -  
[DIR]btchip-python/2022-11-25 00:07 -  
[DIR]buildbot/2022-11-25 00:07 -  
[DIR]breeze-icons/2022-11-25 06:02 -  
[DIR]bridge-method-injector/2022-11-25 06:03 -  
[DIR]bluez-qt/2022-11-25 06:09 -  
[DIR]bb/2022-11-26 06:05 -  
[DIR]blitz++/2022-11-26 06:05 -  
[DIR]baloo-kf5/2022-11-26 06:06 -  
[DIR]biglybt/2022-11-27 06:18 -  
[DIR]blinker/2022-11-27 06:20 -  
[DIR]boot/2022-11-27 06:21 -  
[DIR]berkeley-express/2022-11-27 06:26 -  
[DIR]binutils-djgpp/2022-11-27 06:26 -  
[DIR]bear/2022-11-27 06:26 -  
[DIR]berkeley-abc/2022-11-28 01:25 -  
[DIR]branca/2022-11-28 06:10 -  
[DIR]boinc/2022-11-28 06:12 -  
[DIR]binoculars/2022-11-29 06:07 -  
[DIR]beav/2022-11-29 06:09 -  
[DIR]beast-mcmc/2022-11-29 06:09 -  
[DIR]bluez/2022-11-30 04:56 -  
[DIR]binfmt-support/2022-11-30 06:05 -  
[DIR]beaker/2022-12-01 06:02 -  
[DIR]btrfs-progs/2022-12-01 06:04 -  
[DIR]bwidget/2022-12-02 06:01 -  
[DIR]bm-el/2022-12-02 06:01 -  
[DIR]beautifulsoup4/2022-12-02 06:02 -  
[DIR]bagel/2022-12-02 06:03 -  

Apache/2.4.10 (Debian) Server at http.kali.org Port 443